Flag for Canada Weather past 2 weeks in Longueuil, Quebec, Canada

Now
84 °F

Warm.


Feels Like: 85 °F
Forecast: 65 / 86 °F
Wind: 6 mph from South

Location: Mc Tavish

Current Time: May 30, 2015 at 1:23:20 PM

Latest Report: May 30, 2015 at 12:00 PM


Visibility: N/A

Pressure: 29.88 "Hg

Humidity: 51%

Dew point: 64 °F

Location of LongueuilLocation

Historic Weather in Longueuil — Graph

°F

Longueuil temperature yesterday

Maximum temperature yesterday: 78 °F (at 4:00 PM)
Minimum temperature yesterday: 55 °F (at 5:00 AM)
Average temperature yesterday: 67 °F

Past Weeks' High & Low Weather Summary

 TemperatureHumidityPressure
High84 °F (May 26, 5:00 PM)98% (May 26, 12:00 AM)30.31 "Hg (May 26, 12:00 AM)
Low38 °F (May 23, 5:00 AM)17% (May 15, 6:00 PM)29.61 "Hg (May 19, 5:00 PM)
Average64 °F56%30.00 "Hg
* Reported May 15 12:00 Noon — May 30 12:00 Noon, Longueuil, Weather by CustomWeather, © 2015

Note: Actual official high and low records may vary slightly from our data, if they occured in-between our weather recording intervals... More about our weather records

Advertising

Longueuil weather history for previous 24 hours

 ConditionsComfort  
Time TempWeatherWind HumidityBarometerVisibility
12:00 PM
Sat, May 30
84 °FWarm.6 mph51%29.88 "HgN/A
11:00 AM81 °FWarm.8 mph57%29.89 "HgN/A
10:00 AM79 °FWarm.3 mph60%29.91 "HgN/A
9:00 AM74 °FMild.3 mph64%29.93 "HgN/A
8:00 AM71 °FMild.3 mph68%29.94 "HgN/A
7:00 AM67 °FMild.3 mph74%29.95 "HgN/A
6:00 AM67 °FMild.2 mph69%29.96 "HgN/A
5:00 AM68 °FMild.2 mph63%29.96 "HgN/A
4:00 AM67 °FMild.2 mph59%29.97 "HgN/A
3:00 AM67 °FMild.3 mph62%29.98 "HgN/A
2:00 AM68 °FMild.5 mph59%30.02 "HgN/A
1:00 AM68 °FMild.2 mph63%30.04 "HgN/A
12:00 AM67 °FMild.2 mph60%30.06 "HgN/A
11:00 PM
Fri, May 29
72 °FMild.5 mph53%30.07 "HgN/A
10:00 PM71 °FMild.2 mph58%30.08 "HgN/A
9:00 PM71 °FMild.2 mph57%30.09 "HgN/A
8:00 PM75 °FMild.2 mph46%30.10 "HgN/A
7:00 PM75 °FMild.3 mph51%30.12 "HgN/A
6:00 PM76 °FMild.2 mph45%30.14 "HgN/A
5:00 PM76 °FMild.2 mph44%30.17 "HgN/A
4:00 PM78 °FWarm.3 mph43%30.19 "HgN/A
3:00 PM77 °FMild.6 mph43%30.21 "HgN/A
2:00 PM75 °FMild.3 mph47%30.22 "HgN/A
1:00 PM73 °FMild.2 mph50%30.24 "HgN/A
Weather by CustomWeather, © 2015

See weather overviewHow to use our weather pages